Weather Roundup
Issued by NWS Springfield, MO

Home | Current Version | Previous Version | Text Only | Print | Product List | Glossary On
Versions: 1 2 3 4 5 6 7 8 9 10 11 12 13 14 15 16 17 18 19 20 21 22 23 24 25 26 27 28 29 30 31 32 33 34 35 36 37 38 39 40 41 42 43 44 45 46 47 48 49 50
000
NZUS99 KSGF 271207
HRRSGF

HOURLY WEATHER
NATIONAL WEATHER SERVICE SPRINGFIELD MO
700 AM CDT TUE JUN 27 2017

......SGF CWA......

CITY           SKY/WX    TMP DP  RH WIND       PRES   REMARKS
SPRINGFIELD    MOSUNNY   60  59  96 E6        30.13R
6HR MIN TEMP:  59; 6HR MAX TEMP:  63; 6HR PCP:  0.03;

JOPLIN         CLEAR     63  62  97 E5        30.11R
6HR MIN TEMP:  62; 6HR MAX TEMP:  65; 6HR PCP:  0.12;

WEST PLAINS    PTSUNNY   61  59  93 E3        30.16S
6HR MIN TEMP:  60; 6HR MAX TEMP:  61; 6HR PCP:  0.01;

ROLLA          SUNNY     58  57  97 E5        30.15S
6HR MIN TEMP:  50; 6HR MAX TEMP:  58;

OSAGE BEACH    SUNNY     56  56 100 SE5       30.16R
BRANSON        MOSUNNY   61  59  94 SE8       30.14S

......SURROUNDING SGF CWA......

CITY           SKY/WX    TMP DP  RH WIND       PRES   REMARKS
CHANUTE        CLOUDY    63  62  97 E8        30.10R FOG
PARSONS        PTCLDY    65  63  93 CALM      30.09S
COFFEYVILLE    MOCLDY    66  64  93 CALM      30.07F
EMPORIA        CLOUDY    60  60 100 E8        30.08F
GROVE OK       PTCLDY    64  63  94 CALM      30.10S
ROGERS AR      CLEAR     64  62  93 E6          N/A
SILOAM SPRINGS CLEAR     64  61  88 CALM      30.11R
HARRISON AR    CLOUDY    61  59  93 SE5       30.14S
NEAR YELLVILLE CLOUDY    63  55  77 NE3       30.12S

......KANSAS AND MISSOURI......

CITY           SKY/WX    TMP DP  RH WIND       PRES   REMARKS
KANSAS CTY INT SUNNY     58  56  93 SE5       30.12S
DOWNTOWN KC    SUNNY     60  59  96 E6        30.12S
COLUMBIA       SUNNY     55  55 100 CALM      30.16R
SEDALIA        SUNNY     58  58 100 E3        30.15R
ST JOSEPH      FOG       54  54 100 CALM      30.12F VSB 1/4
ST LOUIS       MOSUNNY   63  57  81 W3        30.16S
SPIRIT OF STL  FOG       57  57 100 CALM      30.15S VSB<1/4
KIRKSVILLE     SUNNY     57  51  80 E5        30.16S
WICHITA        CLOUDY    65  64  97 SE9       30.05S
TOPEKA         CLEAR     59  58  96 SE5       30.10F
OLATHE         SUNNY     58  58 100 SE6       30.12S

......TENNESSEE......

CITY           SKY/WX    TMP DP  RH WIND       PRES   REMARKS
MEMPHIS        CLOUDY    68  61  78 NE12      30.12R
NASHVILLE      PTSUNNY   66  58  75 CALM      30.14R

......ARKANSAS.......

CITY           SKY/WX    TMP DP  RH WIND       PRES   REMARKS
FAYETTEVILLE   CLEAR     60  59  96 VRB3      30.11S
FT SMITH       CLEAR     66  62  87 NE6       30.08S
LITTLE ROCK    PTSUNNY   64  63  96 NE7       30.12R

......OKLAHOMA.......

CITY           SKY/WX    TMP DP  RH WIND       PRES   REMARKS
TULSA          MOCLDY    68  65  90 E5        30.06S
PONCA CITY     CLOUDY    68  61  78 SE10      30.06R
MCALESTER      MOCLDY    70  61  73 NE3       30.08R
OKLAHOMA CITY  CLOUDY    67  63  87 S5        30.07R

......IOWA............

CITY           SKY/WX    TMP DP  RH WIND       PRES   REMARKS
DES MOINES     MOSUNNY   55  47  74 S3        30.15R
QUAD CITIES    SUNNY     54  47  77 CALM      30.16R

......ILLINOIS........

CITY           SKY/WX    TMP DP  RH WIND       PRES   REMARKS
QUINCY         SUNNY     57  53  86 S5        30.15R
CHICAGO        SUNNY     58  47  66 W8        30.12R



USA.gov is the U.S. government's official web portal to all federal, state and local government web resources and services.